,,Stat5,,Stat1,,Stat2,,Stat3,,Stat4,,Wind1,,Wind1,
time,status,PA1M_AVG,status,PR1M_SUM,status,RH1M_AVG,status,SR1M_AVG,status,TA1M_AVG,status,W1dAve1m,status,W1sAve1m,
2000-06-13, 00:00:00,VALID,919.041,VALID,0,VALID,95.8332,VALID,-0.0679233,VALID,20.6153,VALID,99,VALID,0,
2000-06-13, 00:01:00,VALID,919.06,VALID,0,VALID,95.7417,VALID,-0.118866,VALID,20.6059,VALID,119,VALID,0.0241071,
2000-06-13, 00:02:00,VALID,919.061,VALID,0,VALID,95.6857,VALID,-0.0849042,VALID,20.6056,VALID,142,VALID,0,
2000-06-13, 00:03:00,VALID,919.062,VALID,0,VALID,95.8192,VALID,-0.0849042,VALID,20.5927,VALID,143,VALID,0,
2000-06-13, 00:04:00,VALID,919.063,VALID,0,VALID,95.7671,VALID,-0.0849042,VALID,20.5766,VALID,143,VALID,0,
2000-06-13, 00:05:00,VALID,919.067,VALID,0,VALID,95.7213,VALID,-0.0849042,VALID,20.5607,VALID,143,VALID,0,
2000-06-13, 00:06:00,VALID,919.069,VALID,0,VALID,95.8052,VALID,-0.0679233,VALID,20.5537,VALID,143,VALID,0,
2000-06-13, 00:07:00,VALID,919.067,VALID,0,VALID,95.8968,VALID,-0.101885,VALID,20.5504,VALID,143,VALID,0,
2000-06-13, 00:08:00,VALID,919.083,VALID,0,VALID,95.893,VALID,-0.101885,VALID,20.5663,VALID,143,VALID,0,
2000-06-13, 00:09:00,VALID,919.084,VALID,0,VALID,96.0557,VALID,-0.101885,VALID,20.5932,VALID,128,VALID,0,
2000-06-13, 00:10:00,VALID,919.095,VALID,0,VALID,96.2338,VALID,-0.0679233,VALID,20.5989,VALID,127,VALID,0,
2000-06-13, 00:11:00,VALID,919.101,VALID,0,VALID,96.1358,VALID,-0.0849042,VALID,20.6054,VALID,127,VALID,0,
2000-06-13, 00:12:00,VALID,919.099,VALID,0,VALID,95.9909,VALID,-0.101885,VALID,20.6191,VALID,127,VALID,0,
2000-06-13, 00:13:00,VALID,919.103,VALID,0,VALID,95.9324,VALID,-0.0679233,VALID,20.6156,VALID,128,VALID,0,
2000-06-13, 00:14:00,VALID,919.08,VALID,0,VALID,95.94,VALID,-0.0849042,VALID,20.6089,VALID,128,VALID,0,
2000-06-13, 00:15:00,VALID,919.087,VALID,0,VALID,95.659,VALID,-0.0679233,VALID,20.6124,VALID,131,VALID,0,
2000-06-13, 00:16:00,VALID,919.073,VALID,0,VALID,95.6183,VALID,-0.0509425,VALID,20.5992,VALID,130,VALID,0,
2000-06-13, 00:17:00,VALID,919.069,VALID,0,VALID,95.6755,VALID,-0.0849042,VALID,20.6056,VALID,127,VALID,0,
2000-06-13, 00:18:00,VALID,919.072,VALID,0,VALID,95.7086,VALID,-0.101885,VALID,20.6062,VALID,123,VALID,0,
2000-06-13, 00:19:00,VALID,919.074,VALID,0,VALID,95.5954,VALID,-0.101885,VALID,20.5962,VALID,68,VALID,0,
2000-06-13, 00:20:00,VALID,919.085,VALID,0,VALID,95.5522,VALID,-0.101885,VALID,20.6126,VALID,78,VALID,0,
2000-06-13, 00:21:00,VALID,919.078,VALID,0,VALID,95.6463,VALID,-0.0849042,VALID,20.6064,VALID,82,VALID,0,
2000-06-13, 00:22:00,VALID,919.073,VALID,0,VALID,95.7531,VALID,-0.101885,VALID,20.6158,VALID,82,VALID,0,
2000-06-13, 00:23:00,VALID,919.072,VALID,0,VALID,95.879,VALID,-0.0849042,VALID,20.6352,VALID,82,VALID,0,
2000-06-13, 00:24:00,VALID,919.061,VALID,0,VALID,95.9171,VALID,-0.0849042,VALID,20.6385,VALID,88,VALID,0.00651042,
2000-06-13, 00:25:00,VALID,919.038,VALID,0,VALID,95.7518,VALID,0.0169808,VALID,20.6342,VALID,95,VALID,0.565755,
2000-06-13, 00:26:00,VALID,919.014,VALID,0,VALID,95.6514,VALID,0,VALID,20.6342,VALID,103,VALID,0.761259,
2000-06-13, 00:27:00,VALID,918.983,VALID,0,VALID,95.8294,VALID,0.0509425,VALID,20.6372,VALID,97,VALID,0.972973,
2000-06-13, 00:28:00,VALID,918.954,VALID,0,VALID,95.7124,VALID,0.0169808,VALID,20.6339,VALID,92,VALID,0.624349,
2000-06-13, 00:29:00,VALID,918.927,VALID,0,VALID,95.6514,VALID,0,VALID,20.6237,VALID,87,VALID,0.590672,
2000-06-13, 00:30:00,VALID,918.895,VALID,0,VALID,95.5217,VALID,0.0169808,VALID,20.614,VALID,86,VALID,0.853885,
2000-06-13, 00:31:00,VALID,918.858,VALID,0,VALID,95.6374,VALID,0.0339617,VALID,20.6148,VALID,93,VALID,0.837416,
2000-06-13, 00:32:00,VALID,918.845,VALID,0,VALID,95.6882,VALID,-0.0169808,VALID,20.5981,VALID,93,VALID,0.968277,
2000-06-13, 00:33:00,VALID,918.796,VALID,0,VALID,95.6908,VALID,0,VALID,20.589,VALID,95,VALID,0.807075,
2000-06-13, 00:34:00,VALID,918.771,VALID,0,VALID,95.4962,VALID,0,VALID,20.5596,VALID,94,VALID,1.2628,
2000-06-13, 00:35:00,VALID,918.733,VALID,0,VALID,95.2991,VALID,0,VALID,20.5402,VALID,93,VALID,1.22748,
2000-06-13, 00:36:00,VALID,918.706,VALID,0,VALID,95.3487,VALID,0,VALID,20.5435,VALID,97,VALID,0.858953,
2000-06-13, 00:37:00,VALID,918.693,VALID,0,VALID,95.3042,VALID,0,VALID,20.5305,VALID,106,VALID,0.783259,
2000-06-13, 00:38:00,VALID,918.67,VALID,0,VALID,95.3614,VALID,0.0169808,VALID,20.5109,VALID,106,VALID,0.490294,
2000-06-13, 00:39:00,VALID,918.641,VALID,0,VALID,95.3513,VALID,0,VALID,20.4947,VALID,102,VALID,0.656461,
2000-06-13, 00:40:00,VALID,918.619,VALID,0,VALID,95.2661,VALID,0,VALID,20.488,VALID,69,VALID,0.580025,
2000-06-13, 00:41:00,VALID,918.601,VALID,0,VALID,95.1821,VALID,0.0169808,VALID,20.4657,VALID,75,VALID,0.297822,
2000-06-13, 00:42:00,VALID,918.576,VALID,0,VALID,95.2292,VALID,0.0169808,VALID,20.453,VALID,80,VALID,0.572917,
2000-06-13, 00:43:00,VALID,918.557,VALID,0,VALID,95.2305,VALID,0.0169808,VALID,20.4333,VALID,89,VALID,0.101997,
2000-06-13, 00:44:00,VALID,918.524,VALID,0,VALID,95.3831,VALID,0,VALID,20.4237,VALID,92,VALID,0.122013,
2000-06-13, 00:45:00,VALID,918.508,VALID,0,VALID,95.5585,VALID,0.0169808,VALID,20.4306,VALID,92,VALID,0.0506757,
2000-06-13, 00:46:00,VALID,918.48,VALID,0,VALID,95.4924,VALID,0,VALID,20.411,VALID,68,VALID,0,
2000-06-13, 00:47:00,VALID,918.465,VALID,0,VALID,95.495,VALID,0,VALID,20.401,VALID,60,VALID,0,
2000-06-13, 00:48:00,VALID,918.428,VALID,0,VALID,95.6056,VALID,0.0169808,VALID,20.4112,VALID,55,VALID,0,
2000-06-13, 00:49:00,VALID,918.41,VALID,0,VALID,95.79,VALID,0.0169808,VALID,20.4013,VALID,143,VALID,0,
2000-06-13, 00:50:00,VALID,918.41,VALID,0,VALID,95.8332,VALID,0,VALID,20.3752,VALID,190,VALID,0,
2000-06-13, 00:51:00,VALID,918.406,VALID,0,VALID,95.7696,VALID,0,VALID,20.3593,VALID,190,VALID,0,
2000-06-13, 00:52:00,VALID,918.41,VALID,0,VALID,96.0023,VALID,0.0339617,VALID,20.3493,VALID,190,VALID,0,
2000-06-13, 00:53:00,VALID,918.411,VALID,0,VALID,95.9718,VALID,0.0169808,VALID,20.3036,VALID,191,VALID,0,
2000-06-13, 00:54:00,VALID,918.418,VALID,0,VALID,95.9782,VALID,0.0169808,VALID,20.2949,VALID,197,VALID,0,
2000-06-13, 00:55:00,VALID,918.425,VALID,0,VALID,96.0328,VALID,0.0169808,VALID,20.272,VALID,197,VALID,0,
2000-06-13, 00:56:00,VALID,918.426,VALID,0,VALID,96.0507,VALID,0,VALID,20.2567,VALID,197,VALID,0,
2000-06-13, 00:57:00,VALID,918.44,VALID,0,VALID,96.1524,VALID,0,VALID,20.2497,VALID,197,VALID,0,
2000-06-13, 00:58:00,VALID,918.447,VALID,0,VALID,96.1931,VALID,-0.0169808,VALID,20.2271,VALID,197,VALID,0,
2000-06-13, 00:59:00,VALID,918.463,VALID,0,VALID,96.291,VALID,0.0169808,VALID,20.2303,VALID,215,VALID,0,
2000-06-13, 01:00:00,VALID,918.48,VALID,0,VALID,96.3393,VALID,0.0169808,VALID,20.23,VALID,305,VALID,0,
2000-06-13, 01:01:00,VALID,918.487,VALID,0,VALID,96.3012,VALID,0,VALID,20.2261,VALID,300,VALID,0,
2000-06-13, 01:02:00,VALID,918.514,VALID,0,VALID,96.1918,VALID,0,VALID,20.2303,VALID,296,VALID,0,
2000-06-13, 01:03:00,VALID,918.523,VALID,0,VALID,96.2007,VALID,0,VALID,20.2273,VALID,292,VALID,0,
2000-06-13, 01:04:00,VALID,918.542,VALID,0,VALID,96.2388,VALID,0.0169808,VALID,20.2104,VALID,289,VALID,0,
2000-06-13, 01:05:00,VALID,918.541,VALID,0,VALID,96.4258,VALID,0.0339617,VALID,20.2268,VALID,289,VALID,0,
2000-06-13, 01:06:00,VALID,918.549,VALID,0,VALID,96.5987,VALID,0,VALID,20.2405,VALID,289,VALID,0,
2000-06-13, 01:07:00,VALID,918.549,VALID,0,VALID,96.7488,VALID,0.0339617,VALID,20.2562,VALID,287,VALID,0,
2000-06-13, 01:08:00,VALID,918.557,VALID,0,VALID,96.7704,VALID,0,VALID,20.2591,VALID,284,VALID,0,
2000-06-13, 01:09:00,VALID,918.555,VALID,0,VALID,96.75,VALID,0.0169808,VALID,20.2524,VALID,284,VALID,0,
2000-06-13, 01:10:00,VALID,918.565,VALID,0,VALID,96.75,VALID,0,VALID,20.2532,VALID,264,VALID,0,
2000-06-13, 01:11:00,VALID,918.541,VALID,0,VALID,96.792,VALID,0,VALID,20.2462,VALID,137,VALID,0,
2000-06-13, 01:12:00,VALID,918.519,VALID,0,VALID,96.8352,VALID,0.0169808,VALID,20.2494,VALID,123,VALID,0,
2000-06-13, 01:13:00,VALID,918.513,VALID,0,VALID,96.9509,VALID,0,VALID,20.2492,VALID,123,VALID,0,
2000-06-13, 01:14:00,VALID,918.483,VALID,0,VALID,96.9764,VALID,0,VALID,20.2492,VALID,123,VALID,0,
2000-06-13, 01:15:00,VALID,918.459,VALID,0,VALID,97.0311,VALID,0,VALID,20.2564,VALID,123,VALID,0,
2000-06-13, 01:16:00,VALID,918.422,VALID,0,VALID,97.0654,VALID,0,VALID,20.2688,VALID,123,VALID,0,
2000-06-13, 01:17:00,VALID,918.4,VALID,0,VALID,97.1264,VALID,-0.0339617,VALID,20.2823,VALID,123,VALID,0,
2000-06-13, 01:18:00,VALID,918.389,VALID,0,VALID,97.0807,VALID,-0.0169808,VALID,20.2788,VALID,123,VALID,0,
2000-06-13, 01:19:00,VALID,918.38,VALID,0,VALID,97.0667,VALID,0,VALID,20.2917,VALID,122,VALID,0,
2000-06-13, 01:20:00,VALID,918.369,VALID,0,VALID,97.0857,VALID,0,VALID,20.3181,VALID,121,VALID,0,
2000-06-13, 01:21:00,VALID,918.352,VALID,0,VALID,97.1798,VALID,0,VALID,20.3374,VALID,118,VALID,0,
2000-06-13, 01:22:00,VALID,918.357,VALID,0,VALID,97.1061,VALID,-0.0169808,VALID,20.3337,VALID,117,VALID,0,
2000-06-13, 01:23:00,VALID,918.336,VALID,0,VALID,96.97,VALID,0,VALID,20.3208,VALID,116,VALID,0,
2000-06-13, 01:24:00,VALID,918.323,VALID,0,VALID,96.9408,VALID,-0.0169808,VALID,20.3175,VALID,116,VALID,0,
2000-06-13, 01:25:00,VALID,918.299,VALID,0,VALID,97.012,VALID,-0.0169808,VALID,20.3106,VALID,114,VALID,0,
2000-06-13, 01:26:00,VALID,918.297,VALID,0,VALID,97.045,VALID,0,VALID,20.324,VALID,116,VALID,0,
2000-06-13, 01:27:00,VALID,918.285,VALID,0,VALID,97.129,VALID,0,VALID,20.3334,VALID,116,VALID,0,
2000-06-13, 01:28:00,VALID,918.273,VALID,0,VALID,97.2574,VALID,0.0169808,VALID,20.3628,VALID,114,VALID,0,
2000-06-13, 01:29:00,VALID,918.271,VALID,0,VALID,97.3197,VALID,0,VALID,20.3692,VALID,107,VALID,0.122243,
2000-06-13, 01:30:00,VALID,918.283,VALID,0,VALID,97.2879,VALID,0,VALID,20.3854,VALID,98,VALID,0.238809,
2000-06-13, 01:31:00,VALID,918.273,VALID,0,VALID,97.3362,VALID,0,VALID,20.3916,VALID,103,VALID,0.289063,
2000-06-13, 01:32:00,VALID,918.272,VALID,0,VALID,97.2854,VALID,0,VALID,20.3951,VALID,103,VALID,0,
2000-06-13, 01:33:00,VALID,918.259,VALID,0,VALID,97.3045,VALID,0.0169808,VALID,20.4045,VALID,103,VALID,0,
2000-06-13, 01:34:00,VALID,918.259,VALID,0,VALID,97.368,VALID,0,VALID,20.4239,VALID,105,VALID,0,
2000-06-13, 01:35:00,VALID,918.247,VALID,0,VALID,97.3884,VALID,0,VALID,20.4306,VALID,105,VALID,0,
2000-06-13, 01:36:00,VALID,918.237,VALID,0,VALID,97.3375,VALID,0.0169808,VALID,20.4438,VALID,105,VALID,0,
2000-06-13, 01:37:00,VALID,918.231,VALID,0,VALID,97.3235,VALID,0,VALID,20.4304,VALID,110,VALID,0,
2000-06-13, 01:38:00,VALID,918.212,VALID,0,VALID,97.3604,VALID,0,VALID,20.4333,VALID,102,VALID,0,
2000-06-13, 01:39:00,VALID,918.206,VALID,0,VALID,97.382,VALID,-0.0169808,VALID,20.4535,VALID,100,VALID,0,
2000-06-13, 01:40:00,VALID,918.205,VALID,0,VALID,97.2536,VALID,0.0169808,VALID,20.4306,VALID,86,VALID,0,
2000-06-13, 01:41:00,VALID,918.206,VALID,0,VALID,97.2383,VALID,0.0169808,VALID,20.4339,VALID,90,VALID,0,
2000-06-13, 01:42:00,VALID,918.198,VALID,0,VALID,97.148,VALID,0.0509425,VALID,20.3873,VALID,91,VALID,0,
2000-06-13, 01:43:00,VALID,918.185,VALID,0,VALID,97.0997,VALID,0,VALID,20.3752,VALID,98,VALID,0,
2000-06-13, 01:44:00,VALID,918.185,VALID,0,VALID,97.162,VALID,0,VALID,20.369,VALID,102,VALID,0,
2000-06-13, 01:45:00,VALID,918.185,VALID,0,VALID,97.2396,VALID,0,VALID,20.3396,VALID,96,VALID,0,
2000-06-13, 01:46:00,VALID,918.188,VALID,0,VALID,97.3172,VALID,0,VALID,20.3364,VALID,91,VALID,0,
2000-06-13, 01:47:00,VALID,918.185,VALID,0,VALID,97.4392,VALID,0.0169808,VALID,20.3297,VALID,97,VALID,0,
2000-06-13, 01:48:00,VALID,918.196,VALID,0,VALID,97.555,VALID,0,VALID,20.3364,VALID,94,VALID,0,
2000-06-13, 01:49:00,VALID,918.202,VALID,0,VALID,97.6224,VALID,0,VALID,20.3402,VALID,105,VALID,0,
2000-06-13, 01:50:00,VALID,918.201,VALID,0,VALID,97.6808,VALID,0,VALID,20.3232,VALID,106,VALID,0,
2000-06-13, 01:51:00,VALID,918.209,VALID,0,VALID,97.7838,VALID,0,VALID,20.3399,VALID,104,VALID,0,
2000-06-13, 01:52:00,VALID,918.215,VALID,0,VALID,97.8627,VALID,0,VALID,20.3329,VALID,105,VALID,0,
2000-06-13, 01:53:00,VALID,918.23,VALID,0,VALID,97.9275,VALID,0,VALID,20.3558,VALID,103,VALID,0,
2000-06-13, 01:54:00,VALID,918.244,VALID,0,VALID,97.9873,VALID,-0.0169808,VALID,20.369,VALID,98,VALID,0,
2000-06-13, 01:55:00,VALID,918.237,VALID,0,VALID,98.0445,VALID,0,VALID,20.3851,VALID,94,VALID,0,
2000-06-13, 01:56:00,VALID,918.231,VALID,0,VALID,98.0623,VALID,0,VALID,20.4013,VALID,107,VALID,0,
2000-06-13, 01:57:00,VALID,918.239,VALID,0,VALID,98.0763,VALID,0,VALID,20.3908,VALID,102,VALID,0,
2000-06-13, 01:58:00,VALID,918.232,VALID,0,VALID,98.0534,VALID,0.0169808,VALID,20.4043,VALID,97,VALID,0,
2000-06-13, 01:59:00,VALID,918.224,VALID,0,VALID,98.0522,VALID,0,VALID,20.4145,VALID,101,VALID,0,
2000-06-13, 02:00:00,VALID,918.228,VALID,0,VALID,98.0598,VALID,-0.0169808,VALID,20.411,VALID,102,VALID,0,
2000-06-13, 02:01:00,VALID,918.216,VALID,0,VALID,98.0839,VALID,0,VALID,20.4204,VALID,103,VALID,0,
2000-06-13, 02:02:00,VALID,918.197,VALID,0,VALID,98.1005,VALID,0,VALID,20.4306,VALID,101,VALID,0,
2000-06-13, 02:03:00,VALID,918.182,VALID,0,VALID,98.0712,VALID,0.0169808,VALID,20.4301,VALID,107,VALID,0,
2000-06-13, 02:04:00,VALID,918.168,VALID,0,VALID,98.0445,VALID,0,VALID,20.4204,VALID,97,VALID,0.409505,
2000-06-13, 02:05:00,VALID,918.147,VALID,0,VALID,97.972,VALID,0,VALID,20.411,VALID,95,VALID,1.32353,
2000-06-13, 02:06:00,VALID,918.135,VALID,0,VALID,97.9161,VALID,-0.0169808,VALID,20.3819,VALID,98,VALID,1.40308,
2000-06-13, 02:07:00,VALID,918.139,VALID,0,VALID,97.9199,VALID,0.0339617,VALID,20.3588,VALID,95,VALID,1.40915,
2000-06-13, 02:08:00,VALID,918.128,VALID,0,VALID,97.8601,VALID,-0.0169808,VALID,20.3334,VALID,91,VALID,1.74408,
2000-06-13, 02:09:00,VALID,918.123,VALID,0,VALID,97.925,VALID,0.0169808,VALID,20.3138,VALID,95,VALID,1.58699,
2000-06-13, 02:10:00,VALID,918.112,VALID,0,VALID,98.0255,VALID,0.0679233,VALID,20.3125,VALID,91,VALID,1.12162,
2000-06-13, 02:11:00,VALID,918.117,VALID,0,VALID,98.0763,VALID,0.118866,VALID,20.2964,VALID,90,VALID,1.08357,
2000-06-13, 02:12:00,VALID,918.106,VALID,0,VALID,98.1081,VALID,0.0849042,VALID,20.2772,VALID,91,VALID,1.61372,
2000-06-13, 02:13:00,VALID,918.11,VALID,0,VALID,98.1882,VALID,0.0679233,VALID,20.2705,VALID,91,VALID,1.32205,
2000-06-13, 02:14:00,VALID,918.104,VALID,0,VALID,98.1793,VALID,0.0509425,VALID,20.2484,VALID,98,VALID,1.44049,
2000-06-13, 02:15:00,VALID,918.103,VALID,0,VALID,98.2009,VALID,0.0679233,VALID,20.2295,VALID,97,VALID,0.695735,
2000-06-13, 02:16:00,VALID,918.094,VALID,0,VALID,98.2582,VALID,0.0679233,VALID,20.2221,VALID,103,VALID,0.221875,
2000-06-13, 02:17:00,VALID,918.072,VALID,0,VALID,98.2632,VALID,0.0509425,VALID,20.2161,VALID,102,VALID,0.0288826,
2000-06-13, 02:18:00,VALID,918.072,VALID,0,VALID,98.2899,VALID,0.101885,VALID,20.2126,VALID,104,VALID,0.0891047,
2000-06-13, 02:19:00,VALID,918.079,VALID,0,VALID,98.3154,VALID,0.0849042,VALID,20.2124,VALID,103,VALID,0.600296,
2000-06-13, 02:20:00,VALID,918.065,VALID,0,VALID,98.3815,VALID,0.0849042,VALID,20.2285,VALID,98,VALID,0.825284,
2000-06-13, 02:21:00,VALID,918.055,VALID,0,VALID,98.3243,VALID,0.0849042,VALID,20.2062,VALID,72,VALID,0.409505,
2000-06-13, 02:22:00,VALID,918.054,VALID,0,VALID,98.2467,VALID,0.0679233,VALID,20.1739,VALID,84,VALID,0.437283,
2000-06-13, 02:23:00,VALID,918.045,VALID,0,VALID,98.2849,VALID,0.101885,VALID,20.1666,VALID,99,VALID,0.342371,
2000-06-13, 02:24:00,VALID,918.053,VALID,0,VALID,98.2925,VALID,0.0849042,VALID,20.187,VALID,102,VALID,0,
2000-06-13, 02:25:00,VALID,918.052,VALID,0,VALID,98.2556,VALID,-0.0509425,VALID,20.1784,VALID,96,VALID,0.641964,
2000-06-13, 02:26:00,VALID,918.048,VALID,0,VALID,98.2925,VALID,-0.0169808,VALID,20.188,VALID,106,VALID,0.87358,
2000-06-13, 02:27:00,VALID,918.049,VALID,0,VALID,98.281,VALID,-0.0169808,VALID,20.1913,VALID,84,VALID,0.507601,
2000-06-13, 02:28:00,VALID,918.046,VALID,0,VALID,98.1412,VALID,-0.0339617,VALID,20.146,VALID,45,VALID,0.206503,
2000-06-13, 02:29:00,VALID,918.065,VALID,0,VALID,98.0827,VALID,0,VALID,20.1267,VALID,72,VALID,0.895123,
2000-06-13, 02:30:00,VALID,918.065,VALID,0,VALID,98.1221,VALID,0,VALID,20.1172,VALID,101,VALID,0.90625,
2000-06-13, 02:31:00,VALID,918.062,VALID,0,VALID,98.1132,VALID,0,VALID,20.114,VALID,89,VALID,0.589844,
2000-06-13, 02:32:00,VALID,918.07,VALID,0,VALID,98.0789,VALID,-0.0169808,VALID,20.1046,VALID,87,VALID,0.689798,
2000-06-13, 02:33:00,VALID,918.082,VALID,0,VALID,98.0954,VALID,-0.0339617,VALID,20.0914,VALID,80,VALID,0.052576,
2000-06-13, 02:34:00,VALID,918.08,VALID,0,VALID,98.1513,VALID,-0.0169808,VALID,20.0976,VALID,83,VALID,0.228348,
2000-06-13, 02:35:00,VALID,918.097,VALID,0,VALID,98.1806,VALID,-0.0169808,VALID,20.104,VALID,73,VALID,0.424716,
2000-06-13, 02:36:00,VALID,918.093,VALID,0,VALID,98.1615,VALID,-0.0339617,VALID,20.0847,VALID,91,VALID,0.742188,
2000-06-13, 02:37:00,VALID,918.099,VALID,0,VALID,98.1958,VALID,0,VALID,20.0752,VALID,14,VALID,0.284505,
2000-06-13, 02:38:00,VALID,918.079,VALID,0,VALID,98.1475,VALID,-0.0169808,VALID,20.0685,VALID,86,VALID,0.301373,
2000-06-13, 02:39:00,VALID,918.078,VALID,0,VALID,98.1717,VALID,0,VALID,20.0819,VALID,92,VALID,0,
2000-06-13, 02:40:00,VALID,918.063,VALID,0,VALID,98.1958,VALID,-0.0169808,VALID,20.0814,VALID,103,VALID,0,
2000-06-13, 02:41:00,VALID,918.047,VALID,0,VALID,98.2073,VALID,0,VALID,20.1051,VALID,103,VALID,0,
2000-06-13, 02:42:00,VALID,918.033,VALID,0,VALID,98.2022,VALID,-0.0169808,VALID,20.1043,VALID,64,VALID,0,
2000-06-13, 02:43:00,VALID,918.011,VALID,0,VALID,98.1348,VALID,-0.0169808,VALID,20.0981,VALID,277,VALID,0,
2000-06-13, 02:44:00,VALID,918.001,VALID,0,VALID,98.1272,VALID,0,VALID,20.0844,VALID,277,VALID,0,
2000-06-13, 02:45:00,VALID,917.987,VALID,0,VALID,98.145,VALID,-0.0169808,VALID,20.1113,VALID,277,VALID,0,
2000-06-13, 02:46:00,VALID,917.969,VALID,0,VALID,98.1666,VALID,-0.0169808,VALID,20.121,VALID,237,VALID,0,
2000-06-13, 02:47:00,VALID,917.941,VALID,0,VALID,98.2391,VALID,-0.0339617,VALID,20.1535,VALID,112,VALID,0,
2000-06-13, 02:48:00,VALID,917.945,VALID,0,VALID,98.2238,VALID,-0.0509425,VALID,20.1627,VALID,119,VALID,0,
2000-06-13, 02:49:00,VALID,917.949,VALID,0,VALID,98.1895,VALID,-0.0509425,VALID,20.163,VALID,109,VALID,0,
2000-06-13, 02:50:00,VALID,917.945,VALID,0,VALID,98.131,VALID,-0.0679233,VALID,20.15,VALID,105,VALID,0,
2000-06-13, 02:51:00,VALID,917.925,VALID,0,VALID,98.1615,VALID,-0.0849042,VALID,20.1766,VALID,109,VALID,0,
2000-06-13, 02:52:00,VALID,917.917,VALID,0,VALID,98.2251,VALID,-0.0849042,VALID,20.1888,VALID,98,VALID,0,
2000-06-13, 02:53:00,VALID,917.912,VALID,0,VALID,98.1768,VALID,-0.0679233,VALID,20.1888,VALID,94,VALID,0,
2000-06-13, 02:54:00,VALID,917.896,VALID,0,VALID,98.1641,VALID,-0.0339617,VALID,20.1721,VALID,94,VALID,0,
2000-06-13, 02:55:00,VALID,917.911,VALID,0,VALID,98.1335,VALID,0.0339617,VALID,20.1746,VALID,107,VALID,0,
2000-06-13, 02:56:00,VALID,917.901,VALID,0,VALID,98.1246,VALID,0.0509425,VALID,20.1714,VALID,101,VALID,0,
2000-06-13, 02:57:00,VALID,917.885,VALID,0,VALID,98.1374,VALID,0.0679233,VALID,20.1778,VALID,96,VALID,0,
2000-06-13, 02:58:00,VALID,917.883,VALID,0,VALID,98.1908,VALID,0.0679233,VALID,20.1908,VALID,105,VALID,0,
2000-06-13, 02:59:00,VALID,917.878,VALID,0,VALID,98.2429,VALID,0.0509425,VALID,20.2102,VALID,101,VALID,0.206342,
2000-06-13, 03:00:00,VALID,917.881,VALID,0,VALID,98.2086,VALID,0.0679233,VALID,20.19,VALID,98,VALID,1.43729,
2000-06-13, 03:01:00,VALID,917.888,VALID,0,VALID,98.1869,VALID,0.101885,VALID,20.1868,VALID,105,VALID,0.827902,
2000-06-13, 03:02:00,VALID,917.91,VALID,0,VALID,98.1857,VALID,0.0849042,VALID,20.1833,VALID,97,VALID,0.991951,
2000-06-13, 03:03:00,VALID,917.915,VALID,0,VALID,98.1564,VALID,0.0509425,VALID,20.1674,VALID,93,VALID,0.952914,
2000-06-13, 03:04:00,VALID,917.934,VALID,0,VALID,98.1335,VALID,0.0679233,VALID,20.1577,VALID,102,VALID,0.839738,
2000-06-13, 03:05:00,VALID,917.947,VALID,0,VALID,98.1221,VALID,0.0679233,VALID,20.145,VALID,96,VALID,1.01728,
2000-06-13, 03:06:00,VALID,917.94,VALID,0,VALID,98.1437,VALID,0.0339617,VALID,20.1485,VALID,97,VALID,1.28885,
2000-06-13, 03:07:00,VALID,917.945,VALID,0,VALID,98.117,VALID,0.0679233,VALID,20.1358,VALID,93,VALID,1.31098,
2000-06-13, 03:08:00,VALID,917.957,VALID,0,VALID,98.1666,VALID,0.0509425,VALID,20.116,VALID,100,VALID,1.34881,
2000-06-13, 03:09:00,VALID,917.975,VALID,0,VALID,98.1908,VALID,0.0849042,VALID,20.116,VALID,100,VALID,1.29962,
2000-06-13, 03:10:00,VALID,917.977,VALID,0,VALID,98.2276,VALID,0.0169808,VALID,20.1038,VALID,86,VALID,1.20737,
2000-06-13, 03:11:00,VALID,917.99,VALID,0,VALID,98.2111,VALID,0.0169808,VALID,20.0978,VALID,84,VALID,1.03883,
2000-06-13, 03:12:00,VALID,918.008,VALID,0,VALID,98.2505,VALID,0.0169808,VALID,20.075,VALID,98,VALID,0.910262,
2000-06-13, 03:13:00,VALID,918.011,VALID,0,VALID,98.3408,VALID,0.0169808,VALID,20.0782,VALID,98,VALID,0.705659,
2000-06-13, 03:14:00,VALID,918.018,VALID,0,VALID,98.4044,VALID,0.0169808,VALID,20.0809,VALID,92,VALID,0.916903,
2000-06-13, 03:15:00,VALID,918.011,VALID,0,VALID,98.384,VALID,0,VALID,20.0685,VALID,76,VALID,1.22938,
2000-06-13, 03:16:00,VALID,918.001,VALID,0,VALID,98.3497,VALID,0.0169808,VALID,20.0397,VALID,96,VALID,0.867839,
2000-06-13, 03:17:00,VALID,918.013,VALID,0,VALID,98.4184,VALID,0.0169808,VALID,20.033,VALID,81,VALID,0.84375,
2000-06-13, 03:18:00,VALID,918.004,VALID,0,VALID,98.4298,VALID,0.0339617,VALID,20.024,VALID,88,VALID,0.629223,
2000-06-13, 03:19:00,VALID,918.017,VALID,0,VALID,98.4565,VALID,0,VALID,20.0074,VALID,108,VALID,0.135714,
2000-06-13, 03:20:00,VALID,918.026,VALID,0,VALID,98.4934,VALID,0,VALID,20.0007,VALID,98,VALID,0.0267519,
2000-06-13, 03:21:00,VALID,918.045,VALID,0,VALID,98.5455,VALID,0.0339617,VALID,20.0004,VALID,97,VALID,0,
2000-06-13, 03:22:00,VALID,918.063,VALID,0,VALID,98.6015,VALID,0,VALID,20.0171,VALID,112,VALID,0,
2000-06-13, 03:23:00,VALID,918.071,VALID,0,VALID,98.6498,VALID,0,VALID,20.0394,VALID,99,VALID,0,
2000-06-13, 03:24:00,VALID,918.085,VALID,0,VALID,98.6485,VALID,0,VALID,20.0427,VALID,98,VALID,0.101563,
2000-06-13, 03:25:00,VALID,918.091,VALID,0,VALID,98.6295,VALID,0,VALID,20.0171,VALID,42,VALID,0,
2000-06-13, 03:26:00,VALID,918.112,VALID,0,VALID,98.6078,VALID,0,VALID,19.9907,VALID,36,VALID,0,
2000-06-13, 03:27:00,VALID,918.117,VALID,0,VALID,98.6282,VALID,0,VALID,19.9945,VALID,59,VALID,0,
2000-06-13, 03:28:00,VALID,918.123,VALID,0,VALID,98.6574,VALID,0,VALID,20.0012,VALID,55,VALID,0,
2000-06-13, 03:29:00,VALID,918.104,VALID,0,VALID,98.6905,VALID,0,VALID,20.0007,VALID,99,VALID,0,
2000-06-13, 03:30:00,VALID,918.096,VALID,0,VALID,98.7363,VALID,0,VALID,20.037,VALID,98,VALID,0,
2000-06-13, 03:31:00,VALID,918.087,VALID,0,VALID,98.763,VALID,0,VALID,20.0496,VALID,95,VALID,0,
2000-06-13, 03:32:00,VALID,918.079,VALID,0,VALID,98.8215,VALID,0.0169808,VALID,20.0655,VALID,107,VALID,0.223722,
2000-06-13, 03:33:00,VALID,918.077,VALID,0,VALID,98.8113,VALID,0.0509425,VALID,20.0747,VALID,106,VALID,0.873481,
2000-06-13, 03:34:00,VALID,918.08,VALID,0,VALID,98.7732,VALID,-0.0169808,VALID,20.0529,VALID,104,VALID,0.458767,
2000-06-13, 03:35:00,VALID,918.084,VALID,0,VALID,98.7566,VALID,0.0169808,VALID,20.0469,VALID,93,VALID,0.33295,
2000-06-13, 03:36:00,VALID,918.074,VALID,0,VALID,98.7541,VALID,0.0169808,VALID,20.0203,VALID,86,VALID,0,
2000-06-13, 03:37:00,VALID,918.065,VALID,0,VALID,98.7554,VALID,0,VALID,20.0138,VALID,112,VALID,0.373437,
2000-06-13, 03:38:00,VALID,918.059,VALID,0,VALID,98.7325,VALID,0,VALID,19.9945,VALID,102,VALID,0.589489,
2000-06-13, 03:39:00,VALID,918.051,VALID,0,VALID,98.7401,VALID,0.0169808,VALID,19.9716,VALID,98,VALID,0.183699,
2000-06-13, 03:40:00,VALID,918.025,VALID,0,VALID,98.791,VALID,0.0169808,VALID,19.9815,VALID,98,VALID,0.00992399,
2000-06-13, 03:41:00,VALID,918.012,VALID,0,VALID,98.8151,VALID,0,VALID,19.9912,VALID,107,VALID,0.261837,
2000-06-13, 03:42:00,VALID,917.997,VALID,0,VALID,98.8533,VALID,0,VALID,20.0012,VALID,109,VALID,0.279297,
2000-06-13, 03:43:00,VALID,917.978,VALID,0,VALID,98.8278,VALID,-0.0169808,VALID,20.0012,VALID,102,VALID,0,